{"data":{"norad_id":55775,"epoch":"2026-09-20T13:18:03.230784Z","epoch_age_seconds":98385,"freshness":"FRESH","line1":"1 55775U 23028AL  26263.55420406  .00000311  00000+0  33844-4 0  9999","line2":"2 55775  69.9983  93.0662 0002587 269.7479  90.3384 14.98330775195725","mean_motion":14.98330775,"eccentricity":0.0002587,"inclination_deg":69.9983,"raan_deg":93.0662,"arg_perigee_deg":269.7479,"mean_anomaly_deg":90.3384,"bstar":3.3844e-5,"rev_number":19572,"period_min":96.106949415092,"perigee_km":570.255480041,"apogee_km":573.85150860276,"semimajor_km":6950.1904943219,"source":"CELESTRAK","updated_at":"2026-09-21T09:00:33.318164Z"}}